This demonstration page uses our WeatherBlox Daily Observations layout. Learn more.

Left ArrowRight Arrow

39.92423, -83.80882

Hourly Observations for March 20, 2021

Temp ( °F °C ) Dew Point ( °F °C ) Humidity (%) Winds ( mph kmh ) Pressure ( in mb ) Visibility ( mi km ) Precip ( " mm )
12:56 am 00:56 Clear 27 -2.8 21 -6.1 78 78 ENE 9 15 30.52 1033 10 16 N/A
1:56 am 01:56 Clear 26 -3.3 21 -6.1 81 81 ENE 8 13 30.52 1033 10 16 N/A
3:56 am 03:56 Clear 23 -5 18 -7.8 81 81 ENE 7 11 30.53 1034 10 16 N/A
4:56 am 04:56 Clear 26 -3.3 19 -7.2 75 75 E 9 15 30.53 1034 10 16 N/A
5:56 am 05:56 Clear 24 -4.4 18 -7.8 77 77 E 9 15 30.54 1034 10 16 N/A
6:56 am 06:56 Clear 23 -5 18 -7.8 81 81 E 7 11 30.56 1035 10 16 N/A
7:56 am 07:56 Sunny 24 -4.4 18 -7.8 77 77 E 7 11 30.57 1035 10 16 N/A
8:56 am 08:56 Sunny 32 undefined 22 -5.6 66 66 E 6 9 30.59 1036 10 16 N/A
9:56 am 09:56 Sunny 37 2.8 20 -6.7 50 50 E 8 13 30.59 1036 10 16 N/A
10:56 am 10:56 Sunny 42 5.6 19 -7.2 40 40 ESE 13 20 30.59 1036 10 16 N/A
11:56 am 11:56 Sunny 47 8.3 20 -6.7 34 34 E 8 13 30.58 1036 10 16 N/A
12:56 pm 12:56 Sunny 50 10 22 -5.6 33 33 ESE 10 17 30.56 1035 10 16 N/A
1:56 pm 13:56 Sunny 52 11.1 23 -5 32 32 VRB 7 11 30.55 1035 10 16 N/A
2:56 pm 14:56 Sunny 54 12.2 23 -5 30 30 ESE 12 19 30.52 1034 10 16 N/A
3:02 pm 15:02 Hazy 55 13 25 -4 31 31 ESE 9 15 30.49 1032 2 3 N/A
3:18 pm 15:18 Hazy 55 13 25 -4 31 31 E 7 11 30.48 1032 3 4 N/A
3:26 pm 15:26 Hazy 55 13 25 -4 31 31 E 10 17 30.48 1032 4 6 N/A
3:56 pm 15:56 Sunny 56 13.3 24 -4.4 29 29 ESE 15 24 30.50 1033 10 16 N/A
4:56 pm 16:56 Sunny 57 13.9 23 -5 27 27 E 10 17 30.48 1032 10 16 N/A
5:56 pm 17:56 Sunny 56 13.3 21 -6.1 26 26 ESE 9 15 30.47 1032 10 16 N/A
6:56 pm 18:56 Sunny 54 12.2 24 -4.4 31 31 E 9 15 30.47 1032 10 16 N/A
7:56 pm 19:56 Clear 48 8.9 24 -4.4 39 39 E 5 7 30.47 1032 10 16 N/A
8:56 pm 20:56 Clear 45 7.2 23 -5 42 42 ENE 3 6 30.47 1032 10 16 N/A
9:56 pm 21:56 Clear 41 5 25 -3.9 53 53 ENE 5 7 30.47 1032 10 16 N/A
10:56 pm 22:56 Clear 39 3.9 26 -3.3 60 60 ENE 5 7 30.47 1032 10 16 N/A
11:56 pm 23:56 Clear 37 2.8 26 -3.3 65 65 NE 3 6 30.46 1031 10 16 N/A

Powered by AerisWeather